CW2640 Weather Reports


Display with metric or nautical units.
time (UTC)temp
F
wind
direction
speed
MPH
gust
MPH
rain 1hr
in
rain 24hr
in
rain mn
in
humidity
%
barometer
mb
20260831050615 74 80 0.0 0.0 0.00 0.00 0.00 99 1019.1
20260831043613 75 80 0.0 0.0 0.00 0.00 0.00 99 1019.1
20260831040609 75 80 0.0 0.0 0.00 0.00 0.00 99 1019.1
20260831033604 76 80 0.0 0.0 0.00 0.00 0.00 99 1019.1
20260831030604 76 80 0.0 0.0 0.00 0.00 0.00 98 1019.2
20260831023602 77 81 0.0 0.0 0.00 0.00 0.00 98 1019.1
20260831020559 77 87 0.0 0.0 0.00 0.00 0.00 97 1018.8
20260831013554 78 95 0.0 0.0 0.00 0.00 0.00 95 1018.5
20260831010551 79 102 0.0 0.0 0.00 0.00 0.00 94 1018.3
20260831003547 80 102 0.0 0.0 0.00 0.00 0.00 90 1018.2
20260831000542 83 100 0.0 0.0 0.00 0.00 0.00 84 1018.3
20260830233538 85 95 0.0 0.0 0.00 0.00 0.00 77 1018.2
20260830230533 87 93 0.0 0.0 0.00 0.00 0.00 72 1018.1
20260830223533 89 84 0.0 0.0 0.00 0.00 0.00 68 1018.2
20260830220532 90 80 0.0 0.0 0.00 0.00 0.00 68 1018.1
20260830213527 91 80 0.0 0.0 0.00 0.00 0.00 65 1018.1
20260830210526 91 80 0.0 0.0 0.00 0.00 0.00 63 1018.4
20260830203526 92 80 0.0 0.0 0.00 0.00 0.00 61 1018.8
20260830200524 91 80 0.0 0.0 0.00 0.00 0.00 61 1019.1
20260830193521 91 80 0.0 0.0 0.00 0.00 0.00 65 1019.2
20260830190520 90 80 0.0 0.0 0.00 0.00 0.00 70 1019.5
20260830183517 89 80 0.0 0.0 0.00 0.00 0.00 67 1019.8
20260830180517 90 80 0.0 0.0 0.00 0.00 0.00 67 1020.4
20260830173514 89 80 0.0 0.0 0.00 0.00 0.00 72 1020.9
20260830170514 89 80 0.0 0.0 0.00 0.00 0.00 72 1021.1
20260830163511 87 80 0.0 0.0 0.00 0.00 0.00 75 1021.2
20260830160510 88 80 0.0 0.0 0.00 0.00 0.00 76 1021.5
20260830153507 84 80 0.0 0.0 0.00 0.00 0.00 85 1021.8
20260830150507 83 80 0.0 0.0 0.00 0.00 0.00 85 1021.7
20260830143507 85 80 0.0 0.0 0.00 0.00 0.00 82 1021.8
20260830140504 82 80 0.0 0.0 0.00 0.00 0.00 88 1021.7
20260830133459 78 80 0.0 0.0 0.00 0.00 0.00 95 1021.5
20260830130457 75 80 0.0 0.0 0.00 0.00 0.00 99 1021.4
20260830123455 72 80 0.0 0.0 0.00 0.00 0.00 99 1021.1
20260830120450 72 80 0.0 0.0 0.00 0.00 0.00 99 1021.0
20260830113447 71 80 0.0 0.0 0.00 0.00 0.00 99 1020.8
20260830110443 71 80 0.0 0.0 0.00 0.00 0.00 99 1020.6
20260830103439 72 80 0.0 0.0 0.00 0.00 0.00 99 1020.2
20260830100434 72 80 0.0 0.0 0.00 0.00 0.00 99 1020.0
20260830093434 72 80 0.0 0.0 0.00 0.00 0.00 99 1019.8
20260830090434 73 80 0.0 0.0 0.00 0.00 0.00 99 1019.6
20260830083429 73 80 0.0 0.0 0.00 0.00 0.00 99 1019.4
20260830080427 73 80 0.0 0.0 0.00 0.00 0.00 99 1019.3
20260830073422 74 80 0.0 0.0 0.00 0.00 0.00 99 1019.3
20260830070418 74 80 0.0 0.0 0.00 0.00 0.00 99 1019.5
20260830063417 75 80 0.0 0.0 0.00 0.00 0.00 99 1019.7
20260830060416 75 80 0.0 0.0 0.00 0.00 0.00 99 1019.8
20260830053412 76 80 0.0 0.0 0.00 0.00 0.00 99 1019.8